Location: Ladd Observatory
(41.8387°N, 71.3996°W)
Time: 23:17:09
(UTC-05:00)

ISS - Visible Passes

Search period start: 28 January 2015 00:00
Search period end: 07 February 2015 00:00
Orbit: 402 x 410 km, 51.6° (Epoch: 28 January)

Date Brightness Start Highest point End Pass type
(mag) Time Alt. Az. Time Alt. Az. Time Alt. Az.
28 Jan -1.0 04:49:21 20° SSE 04:49:21 20° SSE 04:50:32 10° SE visible
29 Jan -0.7 05:32:49 10° SSW 05:32:49 10° SSW 05:32:59 10° SSW visible
03 Feb -0.4 19:25:41 10° SW 19:26:07 13° SW 19:26:07 13° SW visible
04 Feb -2.3 18:34:06 10° SSW 18:36:48 32° SSE 18:36:48 32° SSE visible
05 Feb -1.5 17:42:59 10° S 17:45:12 17° SE 17:47:22 11° E visible
05 Feb -1.4 19:18:13 10° WSW 19:20:04 29° W 19:20:04 29° W visible
06 Feb -3.4 18:26:10 10° SW 18:29:25 81° SSE 18:30:32 38° ENE visible
